Location: Bois Neuf
(42.7667°N, 0.6333°E)
Time: 22:31:34
(UTC+00:00)

IRIDIUM 104 - Pass Details

Date: 07 June 2020
Orbit: 776 x 779 km, 86.4° (Epoch: 08 July)

Event Time Altitude Azimuth Distance (km) Brightness Sun altitude
Exits shadow 02:07:37 23° 172° (S) 1,605 5.5 -17.8°
Maximum altitude 02:10:54 76° 90° (E) 808 4.4 -17.5°
Drops below altitude 10° 02:16:08 10° 6° (N) 2,341 7.8 -17.0°
Sets 02:18:30 0° 5° (N) 3,272 8.7 -16.7°
